Tracking 18673 objects as of 26-June-2017
HD Live streaming from Space Station
objects crossing your sky now

SDS-4

Track SDS-4 now!
10-day predictions
SDS-4 is classified as:


NORAD ID: 38339
Int'l Code: 2012-025C
Perigee: 662.5 km
Apogee: 671.5 km
Inclination: 98.4 °
Period: 97.9 minutes
Semi major axis: 7038 km
RCS: 0.47 m2 (medium)
Launch date: May 17, 2012
Source: Japan (JPN)
Launch site: TANEGASHIMA SPACE CENTER (TNSTA)
Your satellite tracking list
Your tracking list is empty





NASA's NSSDC Master Catalog

Two Line Element Set (TLE):
1 38339U 12025C   17176.52485014 +.00000013 +00000-0 +10956-4 0  9996
2 38339 098.3971 170.2732 0006373 248.7634 111.2891 14.70370471273740
Source of the keplerian elements: AFSPC